Tracking 28096 objects as of 28-Sep-2023
HD Live streaming from Space Station
objects crossing your sky now

COSMOS 886 DEB

Track COSMOS 886 DEB now!
10-day predictions


NORAD ID: 19112
Int'l Code: 1976-126BZ
Perigee: 494.5 km
Apogee: 1,908.9 km
Inclination: 65.8 °
Period: 109.3 minutes
Semi major axis: 7572 km
RCS: 0.0045 m2 (small)
Launch date: December 27, 1976
Source: Commonwealth of Independent States (former USSR) (CIS)
Launch site: TYURATAM MISSILE AND SPACE COMPLEX (TTMTR)

Note: This is SATELLITE DEBRIS
Your satellite tracking list
Your tracking list is empty




NASA's NSSDC Master Catalog

Two Line Element Set (TLE):
1 19112U 76126BZ  23269.25186651  .00002825  00000-0  67642-3 0  9997
2 19112  65.8234 136.6817 0933922 181.9513 177.7778 13.17424367428659
Source of the keplerian elements: AFSPC